Location: Newark
(42.7133°N, 87.7910°W)
Time: 16:28:20
(UTC+00:00)

S-56A Canister/Altair - All Passes

Search period start: 23 September 2019 00:00
Search period end: 03 October 2019 00:00
Orbit: 633 x 2499 km, 38.9° (Epoch: 21 September)

Date Brightness Start Highest point End Pass type
(mag) Time Alt. Az. Time Alt. Az. Time Alt. Az.
23 Sep - 14:28:33 10° SSW 14:40:34 34° SE 14:52:53 10° E daylight
23 Sep - 16:31:17 10° SW 16:45:57 62° SSE 16:59:17 10° E daylight
23 Sep - 18:37:16 10° W 18:52:24 76° S 19:04:11 10° E daylight
23 Sep - 20:44:31 10° W 20:58:13 61° SSW 21:07:53 10° SE daylight
23 Sep - 22:52:39 10° W 23:01:58 27° SW 23:08:56 10° S daylight
24 Sep - 13:56:02 10° S 14:07:17 30° SE 14:19:10 10° E daylight
24 Sep - 15:58:04 10° SW 16:12:24 59° SSE 16:26:05 10° E daylight
24 Sep - 18:03:38 10° WSW 18:18:51 76° S 18:31:17 10° E daylight
24 Sep - 20:10:42 10° W 20:24:58 65° SSW 20:35:19 10° ESE daylight
24 Sep - 22:18:36 10° W 22:29:09 32° SW 22:36:57 10° SSE daylight
25 Sep - 13:23:42 10° S 13:34:04 26° SE 13:45:18 10° E daylight
25 Sep - 15:24:57 10° SW 15:38:52 56° SSE 15:52:47 10° E daylight
25 Sep - 17:30:04 10° WSW 17:45:15 75° S 17:58:18 10° E daylight
25 Sep - 19:36:56 10° W 19:51:38 68° SSW 20:02:39 10° ESE daylight
25 Sep - 21:44:36 10° W 21:56:15 37° SW 22:04:49 10° SSE daylight
26 Sep - 12:51:35 10° S 13:00:55 23° SE 13:11:13 10° E daylight
26 Sep - 14:51:58 10° SW 15:05:22 52° SSE 15:19:24 10° E daylight
26 Sep - 16:56:36 10° WSW 17:11:37 74° S 17:25:12 10° E daylight
26 Sep - 19:03:12 10° W 19:18:12 71° SSW 19:29:54 10° ESE daylight
26 Sep - 21:10:40 10° W 21:23:14 42° SW 21:32:33 10° SSE daylight
26 Sep - 23:22:08 10° WSW 23:25:53 12° WSW 23:29:16 10° SW daylight
27 Sep - 12:19:44 10° SSE 12:27:51 19° SE 12:36:53 10° E daylight
27 Sep - 14:19:06 10° SW 14:31:54 48° SSE 14:45:53 10° E daylight
27 Sep - 16:23:14 10° WSW 16:37:59 73° SSE 16:52:02 10° E daylight
27 Sep - 18:29:32 10° W 18:44:42 73° S 18:57:03 10° ESE daylight
27 Sep - 20:36:47 10° W 20:50:09 47° SSW 21:00:10 10° SE daylight
27 Sep - 22:46:45 10° W 22:53:11 16° SW 22:58:38 10° SSW daylight
28 Sep - 11:48:16 10° SSE 11:54:52 16° SE 12:02:10 10° E daylight
28 Sep - 13:46:22 10° SSW 13:58:30 45° SE 14:12:17 10° E daylight
28 Sep - 15:49:58 10° WSW 16:04:20 71° SSE 16:18:46 10° E daylight
28 Sep - 17:55:56 10° W 18:11:07 75° S 18:24:06 10° ESE daylight
28 Sep - 20:02:57 10° W 20:16:56 51° SSW 20:27:41 10° SE daylight
28 Sep - 22:12:04 10° W 22:20:24 20° SW 22:27:17 10° S daylight
29 Sep - 11:17:34 10° SE 11:21:58 12° ESE 11:26:42 10° ESE visible
29 Sep - 13:13:47 10° SSW 13:25:11 40° SE 13:38:35 10° E daylight
29 Sep - 15:16:49 10° WSW 15:30:42 69° SSE 15:45:24 10° E daylight
29 Sep - 17:22:25 10° W 17:37:30 76° S 17:51:04 10° ESE daylight
29 Sep - 19:29:11 10° W 19:43:37 56° SSW 19:55:04 10° SE daylight
29 Sep - 21:37:41 10° W 21:47:33 24° SW 21:55:33 10° S daylight
30 Sep - 12:41:19 10° SSW 12:51:58 36° SE 13:04:45 10° E daylight
30 Sep - 14:43:46 10° WSW 14:57:06 66° SSE 15:11:57 10° E daylight
30 Sep - 16:48:59 10° W 17:03:50 77° S 17:17:55 10° E daylight
30 Sep - 18:55:30 10° W 19:10:14 60° SSW 19:22:21 10° SE daylight
30 Sep - 21:03:29 10° W 21:14:35 28° SW 21:23:35 10° S daylight
01 Oct - 12:09:01 10° SSW 12:18:50 32° SE 12:30:49 10° E daylight
01 Oct - 14:10:50 10° SW 14:23:34 63° SSE 14:38:25 10° E daylight
01 Oct - 16:15:39 10° W 16:30:09 77° S 16:44:40 10° E daylight
01 Oct - 18:21:53 10° W 18:36:45 63° SSW 18:49:32 10° SE daylight
01 Oct - 20:29:26 10° W 20:41:32 33° SW 20:51:26 10° SSE daylight
02 Oct - 11:36:53 10° S 11:45:47 28° SE 11:56:45 10° E daylight
02 Oct - 13:38:00 10° SW 13:50:06 59° SSE 14:04:48 10° E daylight
02 Oct - 15:42:25 10° W 15:56:28 77° S 16:11:20 10° E daylight
02 Oct - 17:48:21 10° W 18:03:12 66° SSW 18:16:35 10° ESE daylight
02 Oct - 19:55:30 10° W 20:08:23 37° SW 20:19:06 10° SSE daylight
